[[[{"header":{"parameterUnit":"kt","parameterCategory":2,"dx":1,"dy":1,"la1":30.253999710083008,"la2":30.299108505249023,"lo1":-89.0895004272461,"lo2":-89.04439544677734,"nx":28,"ny":28,"refTime":"2022-09-21T21:00:00:Z","depth":0,"parameterNumber":1,"parameterNumberName":"U-component_of_WINDS"},"data":[-7.3014,-7.3144,-7.3119,-7.3255,-7.3255,-7.3344,-7.3368,-7.3396,-7.3411,-7.3515,-7.357,-7.3558,-7.3564,-7.3624,-7.3683,-7.3676,-7.3705,-7.3769,-7.3751,-7.3482,-7.3444,-7.3407,-7.3375,-7.3775,-7.3776,-7.4033,-7.4036,-7.4038,-7.2822,-7.2823,-7.2887,-7.2932,-7.2987,-7.2909,-7.2938,-7.299,-7.3072,-7.3092,-7.3144,-7.3234,-7.3301,-7.3284,-7.3345,-7.3406,-7.3374,-7.3424,-7.3421,-7.3424,-7.3135,-7.3101,-7.345,-7.345,-7.345,-7.345,-7.345,-7.3449,-7.2464,-7.2543,-7.2554,-7.2623,-7.2638,-7.2669,-7.2739,-7.2721,-7.2784,-7.2843,-7.2799,-7.2892,-7.2907,-7.2967,-7.298,-7.3052,-7.2991,-7.3039,-7.3052,-7.3066,-7.3085,-7.2721,-7.3061,-7.3059,-7.3058,-7.3057,-7.3057,0,-7.2195,-7.2168,-7.2227,-7.2279,-7.2328,-7.2366,-7.2396,-7.2438,-7.2371,-7.2426,-7.2503,-7.2543,-7.2622,-7.2692,-7.2743,-7.2746,-7.2673,-7.2661,-7.2695,-7.272,-7.2735,-7.2731,-7.2265,-7.2652,-7.2649,-7.2646,-7.2644,-7.2643,-7.1835,-7.1929,-7.1927,-7.1972,-7.1982,-7.2056,-7.2094,-7.2027,-7.2072,-7.2099,-7.2172,-7.224,-7.2291,-7.242,-7.2398,-7.2458,-7.2423,-7.2574,-7.2432,-7.2451,-7.2429,-7.2425,-7.2435,-7.2605,-7.2609,-7.2613,-7.2617,0,-7.1636,-7.1591,-7.1727,-7.1716,-7.1716,-7.1818,-7.1808,-7.1883,-7.1857,-7.1957,-7.1977,-7.1936,-7.2013,-7.1966,-7.2044,-7.2018,-7.2188,-7.2151,-7.2183,-7.2174,-7.2307,-7.2296,-7.274,-7.2796,-7.2377,-7.2381,-7.2384,0,-7.1312,-7.1438,-7.1364,-7.1445,-7.1582,-7.1511,-7.1649,-7.1639,-7.165,-7.1728,-7.1634,-7.171,-7.1637,-7.1707,-7.1667,-7.1798,-7.1811,-7.18,-7.1789,-7.181,-7.1812,-7.1835,-7.1818,-7.1755,-7.1753,-7.1751,-7.1749,0,-7.1007,-7.1113,-7.1244,-7.1261,-7.1261,-7.1325,-7.1328,-7.1338,-7.1377,-7.1418,-7.1443,-7.1497,-7.1528,-7.1572,-7.1522,-7.1427,-7.1679,-7.1538,-7.1667,-7.1669,-7.1728,-7.1725,-7.2127,-7.1747,-7.1746,-7.1745,-7.1744,0,-7.074,-7.0782,-7.0978,-7.0976,-7.1007,-7.1093,-7.1141,-7.1203,-7.1221,-7.1202,-7.1234,-7.1167,-7.1274,-7.1138,-7.1286,-7.1177,-7.1214,-7.1211,-7.1219,-7.1229,-7.1079,-7.1316,-7.1701,-7.1741,-7.1235,-7.123,-7.1226,0,-7.0404,-7.0589,-7.0528,-7.0716,-7.0795,-7.0684,-7.0779,-7.0796,-7.0778,-7.0842,-7.0821,-7.0896,-7.0784,-7.0801,-7.088,-7.0862,-7.1003,-7.0841,-7.094,-7.0944,-7.0942,-7.1294,-7.1365,-7.1621,-7.1171,-7.1177,-7.1181,0,-7.0138,-7.0135,-7.0173,-7.0189,-7.02,-7.0265,-7.0373,-7.0431,-7.0477,-7.0506,-7.0597,-7.0699,-7.062,-7.0648,-7.0599,-7.0684,-7.0906,-7.0588,-7.0587,-7.0649,-7.1138,-7.1205,-7.1248,-7.0854,-7.0861,-7.0866,-7.1137,0,-6.975,-6.9835,-6.9933,-6.9972,-7.0014,-7.0128,-7.0075,-7.0127,-7.0074,-7.0051,-7.0182,-7.0183,-7.0243,-7.0278,-7.0227,-7.0436,-7.0394,-7.0309,-7.0175,-7.0406,-7.0495,-7.0531,-7.0048,-7.0044,-7.004,-7.0037,0,0,-6.9441,-6.9562,-6.9491,-6.9592,-6.9624,-6.9506,-6.9633,-6.965,-6.9688,-6.9713,-6.9637,-6.9782,-6.9788,-6.9952,-7.002,-7.0043,-7.0077,-6.9998,-7.0296,-7.0325,-7.0352,-7.0447,-7.0485,-7.0031,-7.0029,-7.0028,-7.0027,0,-6.9289,-6.9293,-6.9418,-6.9432,-6.9449,-6.9418,-6.9448,-6.9445,-6.9437,-6.9562,-6.9466,-6.9537,-6.9655,-6.9674,-6.9699,-6.9976,-6.99,-6.9997,-7.0164,-7.0262,-7.0296,-7.0325,-7.0426,-7.0463,-7.0018,-7.0019,-7.0019,0,-6.9019,-6.9016,-6.907,-6.9134,-6.9144,-6.9228,-6.9074,-6.9168,-6.9229,-6.9097,-6.9224,-6.9219,-6.9239,-6.94,-6.947,-6.9404,-6.9742,-6.9625,-6.9646,-6.9654,-6.9746,-6.9786,-6.9823,-6.9345,-6.9343,-6.9341,0,0,-6.8895,-6.8973,-6.8948,-6.9097,-6.911,-6.9065,-6.9103,-6.9055,-6.9074,-6.9083,-6.9074,-6.9097,-6.9164,-6.921,-6.9271,-6.9454,-6.9455,-6.9544,-6.9576,-6.9602,-6.9624,-6.9723,-6.9763,-6.9333,-6.9333,-6.9333,0,0,-6.8836,-6.8813,-6.8756,-6.8921,-6.8942,-6.8929,-6.9022,-6.8952,-6.9001,-6.8982,-6.8905,-6.8908,-6.9057,-6.9056,-6.8954,-6.9223,-6.9091,-6.9115,-6.9219,-6.9258,-6.9289,-6.9288,-6.8798,0,0,0,0,0,-6.8652,-6.8815,-6.8764,-6.8783,-6.8863,-6.8957,-6.8967,-6.8906,-6.8815,-6.889,-6.8871,-6.8786,-6.8985,-6.8893,-6.8914,-6.903,-6.9229,-6.9248,-6.9265,-6.9442,-6.9484,-6.9519,0,0,0,0,0,0,-6.866,-6.8684,-6.8759,-6.8753,-6.877,-6.8951,-6.8782,-6.877,-6.8805,-6.8787,-6.8792,-6.8786,-6.8737,-6.8878,-6.8898,-6.9009,-6.8791,-6.9237,-6.9252,-6.9266,-6.9457,-6.9491,-6.952,0,0,0,0,0,-6.8665,-6.8684,-6.8828,-6.875,-6.8766,-6.8724,-6.8775,-6.8764,-6.879,-6.8761,-6.8752,-6.8741,-6.8742,-6.8755,-6.889,-6.9001,-6.8776,-6.8784,-6.9247,-6.9259,-6.927,-6.9473,0,0,0,0,0,0,-6.8669,-6.8675,-6.883,-6.8832,-6.8684,-6.8712,-6.8715,-6.8759,-6.8761,-6.8754,-6.8705,-6.8691,-6.8747,-6.8756,-6.8767,-6.9002,-6.8765,-6.8773,-6.8778,-6.9256,-6.9266,-6.9274,0,0,0,0,0,0,-6.8664,-6.8678,-6.8831,-6.875,-6.8743,-6.8702,-6.8705,-6.881,-6.8762,-6.8705,-6.8692,-6.8699,-6.8732,-6.8758,-6.8766,-6.8933,-6.8756,-6.8763,-6.8768,-6.8772,-6.9264,-6.9272,0,0,0,0,0,0,-6.8669,-6.8681,-6.8749,-6.8744,-6.8737,-6.8759,-6.8794,-6.888,-6.8692,-6.8706,-6.8674,-6.8665,-6.8737,-6.8743,-6.8766,-6.893,-6.8932,-6.8756,-6.8761,-6.8765,-6.8767,0,0,0,0,0,0,0,-6.8673,-6.8608,-6.8816,-6.8738,-6.8732,-6.8854,-6.8855,-6.8855,-6.869,-6.8683,-6.8676,-6.8669,-6.8712,-6.8721,-6.8729,-6.8928,0,0,-6.8755,-6.8759,0,0,0,0,0,0,0,0,-6.8601,-6.8606,-6.8816,-6.8816,-6.8817,-6.8854,-6.8855,-6.8855,-6.8689,-6.8683,-6.8677,-6.8672,-6.8715,-6.8721,-6.8728,0,0,0,0,0,0,0,0,0,0,0,0,0,0,0,-6.8816,-6.8816,0,-6.8854,-6.8855,-6.8855,-6.8688,-6.8683,-6.8679,-6.8674,-6.8716,-6.8722,-6.8728,0,0,0,0,0,0,0,0,0,0,0,0,0,0,0,0,0,0,0,0,0,0,0,0,0,0,0,0,0,0,0,0,0,0,0,0,0,0,0,0,0,0,0,0,0,0,0,0,0,0,0,0,0,0,0,0,0,0,0,0,0,0,0,0,0,0,0,0,0]}],[{"header":{"parameterUnit":"kt","parameterCategory":2,"dx":1,"dy":1,"la1":30.253999710083008,"la2":30.299108505249023,"lo1":-89.0895004272461,"lo2":-89.04439544677734,"nx":28,"ny":28,"refTime":"2022-09-21T21:00:00:Z","depth":0,"parameterNumber":2,"parameterNumberName":"V-component_of_WINDS"},"data":[-7.7085,-7.7146,-7.7133,-7.7196,-7.7195,-7.7235,-7.7245,-7.7257,-7.7262,-7.7308,-7.7332,-7.7324,-7.7323,-7.7348,-7.7372,-7.7368,-7.7379,-7.7411,-7.74,-7.7272,-7.7254,-7.7236,-7.7221,-7.7413,-7.7414,-7.7535,-7.7536,-7.7537,-7.6992,-7.6992,-7.7022,-7.7042,-7.7067,-7.7029,-7.704,-7.7064,-7.7101,-7.7108,-7.713,-7.7169,-7.7198,-7.7186,-7.7211,-7.7238,-7.7221,-7.7246,-7.7244,-7.7244,-7.7107,-7.7091,-7.7259,-7.7259,-7.7259,-7.7259,-7.7259,-7.7259,-7.6821,-7.6858,-7.6862,-7.6894,-7.69,-7.6913,-7.6946,-7.6935,-7.6963,-7.6989,-7.6966,-7.7007,-7.7011,-7.7033,-7.7037,-7.7068,-7.7038,-7.7061,-7.7066,-7.7073,-7.7082,-7.691,-7.7071,-7.7071,-7.707,-7.707,-7.707,0,-7.6691,-7.6678,-7.6705,-7.6729,-7.6751,-7.6768,-7.6781,-7.68,-7.6765,-7.679,-7.6824,-7.6841,-7.6874,-7.6904,-7.6924,-7.6923,-7.6885,-7.6879,-7.6894,-7.6907,-7.6915,-7.6912,-7.6689,-7.6875,-7.6873,-7.6872,-7.6871,-7.687,-7.6518,-7.6562,-7.656,-7.6581,-7.6585,-7.6619,-7.6636,-7.6602,-7.6622,-7.6632,-7.6665,-7.6695,-7.6717,-7.6773,-7.6758,-7.6783,-7.6765,-7.6837,-7.6768,-7.6778,-7.6766,-7.6765,-7.6769,-7.6851,-7.6854,-7.6856,-7.6857,0,-7.6421,-7.6399,-7.6464,-7.6456,-7.6456,-7.6504,-7.6497,-7.6532,-7.6517,-7.6563,-7.6572,-7.6549,-7.6582,-7.6556,-7.6589,-7.6574,-7.6652,-7.6633,-7.6651,-7.6646,-7.6708,-7.6703,-7.6915,-7.6941,-7.674,-7.6742,-7.6744,0,-7.6265,-7.6324,-7.6287,-7.6326,-7.6391,-7.6355,-7.642,-7.6414,-7.6416,-7.6452,-7.6405,-7.6439,-7.64,-7.643,-7.6409,-7.6468,-7.6473,-7.6466,-7.6459,-7.6471,-7.6472,-7.648,-7.6471,-7.6442,-7.6441,-7.644,-7.644,0,-7.6117,-7.6166,-7.6229,-7.6237,-7.6234,-7.6264,-7.6265,-7.6267,-7.6284,-7.6302,-7.6312,-7.6335,-7.6348,-7.6366,-7.6338,-7.6292,-7.6409,-7.634,-7.6401,-7.6402,-7.6429,-7.6428,-7.6621,-7.6438,-7.6438,-7.6438,-7.6437,0,-7.5987,-7.6006,-7.61,-7.6097,-7.6112,-7.6153,-7.6173,-7.6202,-7.6208,-7.6197,-7.621,-7.6175,-7.6224,-7.6158,-7.6225,-7.6173,-7.6189,-7.6185,-7.6189,-7.6192,-7.6119,-7.6233,-7.6419,-7.6438,-7.6195,-7.6193,-7.6191,0,-7.5823,-7.5912,-7.5882,-7.5972,-7.6009,-7.5954,-7.5998,-7.6005,-7.5994,-7.6023,-7.601,-7.6044,-7.5989,-7.5995,-7.6032,-7.602,-7.6087,-7.601,-7.6052,-7.6054,-7.6053,-7.6224,-7.6259,-7.6381,-7.6165,-7.6168,-7.6169,0,-7.5694,-7.5692,-7.571,-7.5717,-7.572,-7.5751,-7.5802,-7.5828,-7.5849,-7.5861,-7.5903,-7.5949,-7.5909,-7.5921,-7.5894,-7.5934,-7.604,-7.5886,-7.5886,-7.5915,-7.6149,-7.6182,-7.6203,-7.6014,-7.6017,-7.602,-7.6149,0,-7.5504,-7.5545,-7.5593,-7.5611,-7.563,-7.5685,-7.5657,-7.5681,-7.5654,-7.5641,-7.5702,-7.57,-7.5725,-7.5741,-7.5715,-7.5813,-7.5793,-7.575,-7.5684,-7.5796,-7.5838,-7.5855,-7.5624,-7.5622,-7.562,-7.5618,0,0,-7.5354,-7.5412,-7.5377,-7.5426,-7.5441,-7.5382,-7.5443,-7.545,-7.5465,-7.5476,-7.5439,-7.5504,-7.5504,-7.558,-7.5613,-7.5623,-7.5638,-7.5599,-7.5743,-7.5757,-7.577,-7.5815,-7.5833,-7.5615,-7.5615,-7.5614,-7.5613,0,-7.5279,-7.5281,-7.5342,-7.5348,-7.5355,-7.5338,-7.5353,-7.535,-7.5344,-7.5403,-7.5354,-7.5386,-7.5439,-7.5445,-7.5456,-7.5589,-7.555,-7.5599,-7.5681,-7.5726,-7.5742,-7.5756,-7.5805,-7.5822,-7.5609,-7.5609,-7.5609,0,-7.5147,-7.5145,-7.5171,-7.5201,-7.5206,-7.5245,-7.5169,-7.5214,-7.5243,-7.5175,-7.5235,-7.523,-7.5236,-7.5311,-7.5344,-7.5311,-7.5472,-7.5416,-7.5426,-7.5429,-7.5472,-7.5491,-7.5509,-7.5278,-7.5277,-7.5276,0,0,-7.5086,-7.5124,-7.5111,-7.5183,-7.5189,-7.5165,-7.5183,-7.5158,-7.5166,-7.5169,-7.5162,-7.517,-7.52,-7.522,-7.5247,-7.5334,-7.5332,-7.5376,-7.5392,-7.5405,-7.5415,-7.5461,-7.548,-7.5272,-7.5272,-7.5272,0,0,-7.5056,-7.5044,-7.5016,-7.5097,-7.5106,-7.5097,-7.5142,-7.5107,-7.5129,-7.5119,-7.5078,-7.5079,-7.5148,-7.5145,-7.5096,-7.5223,-7.5158,-7.5169,-7.5223,-7.5242,-7.5257,-7.5257,-7.5018,0,0,0,0,0,-7.4966,-7.5045,-7.502,-7.503,-7.5067,-7.5111,-7.5116,-7.5084,-7.5039,-7.5076,-7.5064,-7.502,-7.5111,-7.5066,-7.5076,-7.5131,-7.5222,-7.523,-7.5239,-7.5328,-7.5349,-7.5366,0,0,0,0,0,0,-7.4969,-7.4981,-7.5018,-7.5013,-7.5021,-7.5108,-7.5025,-7.5018,-7.5035,-7.5026,-7.5024,-7.502,-7.4994,-7.5059,-7.5068,-7.5121,-7.5015,-7.5225,-7.5233,-7.5239,-7.5335,-7.5352,-7.5366,0,0,0,0,0,-7.4972,-7.4981,-7.505,-7.5012,-7.5019,-7.4996,-7.5022,-7.5016,-7.5027,-7.5009,-7.5004,-7.5002,-7.4996,-7.5002,-7.5064,-7.5118,-7.5008,-7.5012,-7.523,-7.5236,-7.5241,-7.5343,0,0,0,0,0,0,-7.4974,-7.4975,-7.505,-7.5051,-7.4979,-7.499,-7.4991,-7.5013,-7.5009,-7.5005,-7.4985,-7.4978,-7.4999,-7.5002,-7.5007,-7.5119,-7.5003,-7.5006,-7.5009,-7.5234,-7.5239,-7.5243,0,0,0,0,0,0,-7.497,-7.4977,-7.5051,-7.5012,-7.5008,-7.4986,-7.4986,-7.5035,-7.501,-7.4985,-7.4979,-7.4982,-7.4992,-7.5004,-7.5007,-7.5084,-7.4999,-7.5002,-7.5005,-7.5006,-7.5238,-7.5242,0,0,0,0,0,0,-7.4972,-7.4978,-7.5011,-7.5008,-7.5004,-7.5012,-7.5028,-7.5067,-7.4978,-7.4986,-7.4969,-7.4964,-7.4994,-7.4997,-7.5007,-7.5083,-7.5084,-7.4999,-7.5001,-7.5003,-7.5004,0,0,0,0,0,0,0,-7.4974,-7.4944,-7.5045,-7.5005,-7.5002,-7.506,-7.506,-7.506,-7.4977,-7.4973,-7.497,-7.4966,-7.4979,-7.4983,-7.4987,-7.5082,0,0,-7.4999,-7.5,0,0,0,0,0,0,0,0,-7.4941,-7.4943,-7.5045,-7.5045,-7.5045,-7.506,-7.506,-7.506,-7.4976,-7.4973,-7.497,-7.4968,-7.498,-7.4983,-7.4986,0,0,0,0,0,0,0,0,0,0,0,0,0,0,0,-7.5045,-7.5045,0,-7.506,-7.506,-7.506,-7.4976,-7.4973,-7.4971,-7.4969,-7.4981,-7.4984,-7.4986,0,0,0,0,0,0,0,0,0,0,0,0,0,0,0,0,0,0,0,0,0,0,0,0,0,0,0,0,0,0,0,0,0,0,0,0,0,0,0,0,0,0,0,0,0,0,0,0,0,0,0,0,0,0,0,0,0,0,0,0,0,0,0,0,0,0,0,0,0]}]]]